Simultaneous Nadir Overpasses (SNOs) Predictions

Prediction of SNOs between METOP-B and NPP Satellite Orbit:

Table of predicted SNOs for the next 14.0 days since TLE Epoch: 10/17/2016
Index Date (METOP-B) Time (METOP-B) Lat,Lon (METOP-B) SZA (METOP-B ) Date (NPP) Time (NPP) Lat,Lon (NPP) SZA (NPP ) Distance(km) Time Diff (sec)
1 10/31/2016 02:02:28 73.28, 142.77 87.41 10/31/2016 02:01:19 73.30, 140.52 87.47 72.11 69
2 10/31/2016 02:53:11 -73.22, -50.05 92.65 10/31/2016 02:52:01 -73.19, -51.93 92.64 60.64 70
3 10/31/2016 03:43:55 73.01, 116.84 87.17 10/31/2016 03:42:43 73.00, 115.79 87.18 34.04 72
4 10/31/2016 04:34:39 -72.90, -76.08 92.94 10/31/2016 04:33:25 -72.89, -76.67 92.93 19.18 74
5 10/31/2016 05:25:22 72.74, 90.92 86.92 10/31/2016 05:24:08 72.75, 90.94 86.94 1.48 74
6 10/31/2016 06:16:04 -72.72,-101.78 93.08 10/31/2016 06:14:52 -72.75,-101.73 93.06 2.79 72
7 10/31/2016 07:06:43 72.77, 65.65 86.98 10/31/2016 07:05:38 72.75, 65.56 86.97 3.30 65
8 10/31/2016 07:57:25 -72.76,-127.06 93.03 10/31/2016 07:56:22 -72.75,-127.12 93.03 2.11 63
9 10/31/2016 08:48:05 72.75, 40.26 86.98 10/31/2016 08:47:08 72.76, 40.17 87.00 3.25 57
10 10/31/2016 09:38:47 -72.73,-152.44 93.03 10/31/2016 09:37:52 -72.75,-152.50 93.00 3.09 55
11 10/31/2016 10:29:27 72.73, 14.88 86.98 10/31/2016 10:28:37 72.71, 14.89 86.97 1.65 50
12 10/31/2016 11:20:09 -72.71,-177.82 93.02 10/31/2016 11:19:21 -72.71,-177.78 93.03 1.40 48
13 10/31/2016 12:10:49 72.71, -10.50
